Presure
113 123 119 108 109 127 122 116 128 132 138 129 137 128 134 149 148 165 151 159 166 186 161 179 200 191 173 221 207 193 185 181 184 181 185 184 183 184 205 192 194 190 174 184 205 197 193 205 191
105 127 135 125 104 122 123 134 136 130 128 136 129 142 133 148 181 157 155 167 164 146 157 151 180 211 228 218 212 195 181 181 184 181 194 203 208 211 215 206 205 199 198 195 199 207 217 209 195
101 136 117 118 131 131 142 125 121 136 121 130 139 139 134 146 158 166 161 169 136 143 130 139 151 159 162 168 206 194 191 174 200 152 150 187 178 173 172 157 165 190 202 198 206 203 196 194 199
110 123 117 118 115 124 129 119 125 152 128 129 127 137 148 147 161 161 158 169 128 133 125 146 127 137 145 127 130 129 221 122 178 189 160 162 136 129 136 135 128 247 255 228 208 213 205 201 200
107 142 116 117 118 125 136 134 132 130 112 129 146 137 147 149 159 169 161 163 128 130 125 125 128 140 127 154 123 126 120 119 135 157 167 127 150 131 136 125 124 150 255 244 216 227 195 194 205
126 137 106 118 116 133 113 121 118 116 111 117 132 138 134 150 158 167 133 133 126 126 133 123 191 135 112 158 182 150 155 109 188 191 233 215 150 149 160 134 188 174 243 224 185 238 243 244 240
137 116 134 157 128 138 115 136 144 134 137 133 129 133 134 148 160 167 126 141 127 139 125 172 195 206 134 212 191 196 192 190 205 154 228 189 136 154 175 179 180 158 220 160 196 193 192 200 185
110 148 110 126 129 111 136 128 132 114 131 124 132 140 135 151 148 157 122 127 120 132 125 110 168 157 134 133 181 168 222 209 197 188 205 124 103 175 172 158 164 186 188 129 122 182 134 179 143
163 114 118 131 118 135 116 115 114 140 125 128 131 138 135 134 147 159 170 116 119 132 131 132 185 142 130 129 122 125 203 191 192 204 195 188 190 184 157 154 176 185 153 156 191 180 120 182 137
105 153 104 138 117 135 89 129 105 138 142 137 130 128 141 135 150 160 172 163 123 119 137 124 151 131 116 123 133 148 119 134 127 170 166 139 150 139 168 163 131 173 142 175 143 146 118 142 161
139 142 121 131 132 126 129 116 117 131 149 138 133 133 136 136 151 159 174 160 125 136 138 125 138 124 123 133 134 118 127 120 135 126 135 146 135 130 117 128 136 137 170 121 152 144 130 120 148
149 126 138 131 119 110 137 132 150 138 154 123 140 128 126 141 149 157 180 160 136 130 122 124 176 137 112 132 133 130 141 107 125 123 134 122 126 117 120 131 121 116 117 145 161 154 130 119 142
137 140 136 142 132 113 140 110 140 127 131 128 125 133 134 137 142 157 181 157 122 184 126 138 174 127 116 136 127 123 135 124 121 126 160 146 127 141 148 124 152 139 128 111 120 110 131 112 121
127 118 131 129 134 131 140 114 126 128 126 130 139 128 132 130 141 157 181 152 165 224 134 128 195 132 134 132 122 125 123 99 116 138 164 155 127 137 134 154 139 167 159 126 121 119 107 149 98
115 138 134 133 128 133 126 104 105 120 137 111 168 135 132 134 141 156 180 151 167 125 134 136 175 134 140 131 129 127 127 124 105 138 135 152 127 127 128 138 135 140 131 155 182 174 180 169 146
155 147 141 126 132 147 136 125 118 115 140 152 116 129 136 141 144 154 175 147 164 203 131 148 121 122 127 132 116 131 123 114 126 138 122 108 125 137 155 146 150 152 129 145 118 128 118 132 110
138 155 158 127 136 130 125 134 123 139 128 113 143 117 128 155 161 156 177 149 163 191 127 135 123 110 121 112 133 125 118 124 133 121 135 128 133 133 141 136 142 135 132 124 122 111 132 127 131
155 142 142 141 135 142 124 122 132 127 132 143 107 155 131 135 150 159 177 147 154 186 214 132 142 118 112 140 137 132 146 141 133 128 132 127 129 139 132 135 135 128 131 138 133 135 134 136 141
152 158 135 141 154 140 133 144 121 123 111 115 122 142 129 126 149 156 174 145 132 180 223 119 123 122 117 121 139 142 143 141 134 128 138 142 134 127 128 132 136 134 126 126 96 141 155 141 139
224 173 167 149 141 133 126 144 118 120 123 141 133 135 114 125 157 164 167 156 147 181 172 179 131 119 118 127 122 137 154 149 133 133 133 126 151 140 130 131 131 134 138 138 127 132 142 124 126
162 211 201 177 145 139 141 131 126 124 122 131 110 113 139 174 135 171 247 155 153 181 219 186 177 132 127 131 131 121 160 163 149 126 140 138 140 148 131 137 140 139 145 145 142 142 143 137 134
131 144 186 206 149 225 139 128 124 131 122 142 139 164 162 158 141 176 259 151 158 146 188 152 169 198 137 123 129 127 137 174 143 152 131 117 124 127 136 142 144 145 138 126 129 128 128 146 142
134 138 141 177 188 133 133 138 124 107 110 115 121 155 172 142 148 165 204 154 158 147 199 171 177 169 207 140 132 107 125 161 138 130 134 138 123 135 108 115 130 139 131 133 125 135 135 137 141
145 139 134 142 167 169 164 186 197 116 120 131 144 132 131 121 149 156 216 154 157 158 170 198 177 172 206 192 134 127 133 128 136 138 125 136 140 137 122 132 133 126 122 131 138 138 147 150 155
126 149 140 135 132 145 145 180 183 177 131 145 153 158 128 140 169 163 181 163 150 142 145 178 206 187 166 225 177 132 134 131 109 137 138 139 128 127 140 129 123 130 123 120 132 148 152 158 152
152 159 150 139 130 137 156 151 176 189 149 141 143 144 160 146 133 205 166 159 136 171 141 159 213 185 182 173 210 148 129 133 135 137 135 127 128 120 104 115 135 143 139 140 145 157 152 148 138
161 153 150 150 127 132 122 141 160 171 197 200 174 141 145 121 152 181 161 152 134 149 162 137 158 215 200 162 228 206 151 129 133 135 133 133 108 140 146 115 122 134 146 161 165 137 163 167 163
174 148 111 150 151 104 129 129 134 149 166 204 181 163 170 170 111 131 165 154 138 136 156 148 148 157 197 199 226 234 162 149 139 139 140 137 136 136 120 143 150 159 162 152 164 170 166 173 171
178 176 165 105 137 142 108 80 133 133 146 170 168 169 156 155 126 157 162 152 140 139 143 160 140 146 151 174 184 248 213 171 160 154 153 156 154 157 159 162 166 171 173 168 168 168 164 172 180
203 77 184 172 160 146 142 126 121 131 101 128 97 175 168 165 140 153 176 160 152 144 146 154 144 138 144 165 163 191 181 210 197 185 183 182 179 172 174 179 179 184 182 187 184 178 187 183 153
Wind_Speed
16 13 14 20 18 18 18 19 22 16 17 19 25 22 24 36 34 38 29 34 38 47 27 31 25 22 17 15 12 8 10 12 12 10 8 6 8 10 8 12 9 12 10 10 6 8 8 7 9
13 10 8 14 18 13 11 25 12 18 16 20 18 29 26 35 35 34 34 41 38 32 31 32 29 24 17 17 15 12 14 14 12 15 8 7 9 11 11 8 7 3 2 6 4 3 4 7 8
16 5 11 13 11 10 18 19 26 10 17 19 21 26 24 35 35 35 36 38 29 30 30 35 30 27 27 24 15 14 13 18 15 24 28 22 24 23 21 25 20 7 4 1 5 7 9 6 5
11 14 9 12 11 11 15 16 11 19 16 19 19 23 32 34 38 35 30 36 28 28 28 26 31 28 27 26 29 31 14 35 16 16 24 25 33 32 31 32 36 16 9 5 6 11 14 13 9
11 12 10 11 14 10 13 13 12 9 17 19 28 20 33 33 36 40 30 31 25 26 26 27 29 28 28 24 27 28 32 34 30 22 18 30 24 33 32 36 36 28 22 20 17 17 19 17 13
18 12 14 9 12 12 11 7 13 10 10 5 19 22 22 33 36 35 17 18 24 26 24 24 24 27 22 19 17 19 20 27 15 16 20 26 26 27 27 31 30 35 45 34 36 31 27 26 24
14 10 9 6 12 10 16 16 9 6 10 9 10 18 21 32 35 34 16 19 22 23 22 26 29 19 26 15 16 11 12 16 17 27 28 34 26 25 27 29 28 37 51 40 41 39 39 34 28
10 18 11 11 10 13 8 8 9 7 9 8 17 21 20 30 27 30 16 18 22 21 21 19 26 25 23 31 20 27 18 19 24 23 28 27 29 20 29 34 35 32 37 34 34 38 43 34 38
29 12 10 9 9 8 13 12 9 19 4 9 13 22 17 16 25 30 29 17 19 17 18 17 20 20 23 25 23 31 28 29 25 24 24 22 19 23 37 40 33 32 42 40 30 38 32 38 50
17 26 7 15 8 13 12 14 16 15 16 6 8 9 21 16 26 31 31 21 12 11 16 17 18 20 13 21 32 34 28 39 38 33 33 39 33 35 32 37 38 34 43 39 44 43 31 40 35
17 18 14 22 15 12 5 2 6 12 21 3 6 10 17 13 26 30 30 19 10 9 14 16 15 14 13 23 30 25 32 31 33 35 37 34 34 35 29 38 39 41 34 35 37 41 41 31 39
25 21 17 20 22 11 12 23 24 20 13 4 8 7 8 20 25 28 28 16 8 10 12 15 5 12 10 19 25 29 26 20 30 28 30 31 32 29 31 35 27 20 23 44 31 33 45 38 31
19 19 19 18 24 18 18 7 14 11 8 5 5 9 9 16 17 26 27 14 3 9 8 6 3 8 11 15 19 21 25 23 28 28 26 26 29 29 32 24 34 39 37 20 31 27 37 35 34
32 30 25 24 23 17 16 16 16 15 13 6 13 2 7 4 15 23 26 12 13 14 3 7 1 5 5 10 14 16 21 17 21 23 26 23 24 25 34 32 38 30 29 33 33 33 22 32 19
25 28 29 28 31 18 28 15 11 16 18 6 29 10 5 3 12 22 24 11 14 6 1 2 2 4 1 7 12 13 17 16 13 20 24 20 25 27 27 30 30 31 33 30 28 30 29 29 28
43 37 30 30 28 19 20 25 23 18 20 25 7 8 7 8 12 20 22 8 11 11 2 4 10 7 4 5 9 9 9 11 13 16 18 16 23 23 24 26 26 27 28 27 22 28 20 22 26
40 40 44 36 30 31 32 21 28 23 24 13 21 7 5 20 19 20 20 11 10 10 4 4 4 9 4 8 8 7 7 6 12 13 14 15 17 20 23 26 26 26 27 24 23 21 27 26 29
46 36 34 34 36 29 33 35 27 22 15 23 17 13 8 7 20 18 19 12 10 9 8 6 9 5 4 9 5 7 6 4 6 9 11 11 13 15 20 23 23 25 24 23 23 22 27 28 31
44 50 43 40 40 36 38 30 32 29 23 18 15 16 10 8 19 16 20 13 6 12 10 7 6 5 2 4 6 5 5 6 5 8 6 8 11 13 17 19 18 20 20 19 25 24 29 26 27
65 60 58 43 43 44 46 29 34 27 28 23 25 16 12 16 21 17 21 20 14 13 7 16 14 6 4 7 1 3 9 8 4 4 6 8 6 9 13 16 19 17 18 20 22 20 25 17 20
48 62 57 57 43 42 47 45 45 30 31 26 21 16 27 28 24 21 22 21 18 14 13 17 15 18 14 9 6 2 10 11 9 2 5 5 5 3 12 12 12 14 17 21 21 22 24 22 21
44 42 56 59 43 54 43 43 42 39 36 33 41 38 32 28 18 27 16 21 21 18 16 18 17 17 22 9 8 5 9 13 6 5 3 5 6 9 11 8 8 10 15 14 13 14 15 23 22
51 45 40 48 45 47 50 51 49 30 39 32 31 41 36 30 21 21 24 22 21 20 11 20 17 16 24 18 14 6 5 12 8 3 2 5 4 11 15 1 11 14 13 13 10 16 16 19 20
59 51 45 43 42 40 48 45 48 45 37 47 40 25 32 22 20 21 25 22 20 22 17 13 19 18 19 25 19 10 10 8 8 10 1 7 6 7 3 8 9 7 8 13 17 17 21 22 20
48 60 50 46 48 55 48 43 47 51 46 52 53 48 28 25 37 28 28 26 21 19 22 15 16 20 20 27 24 18 14 11 8 11 11 10 3 3 9 7 6 12 9 9 16 21 21 20 19
66 66 57 55 61 63 50 49 52 49 49 52 52 46 51 29 26 29 28 23 19 19 21 18 16 19 21 22 26 27 14 15 15 14 14 8 7 4 11 9 13 16 17 20 22 19 20 20 20
76 64 69 63 61 50 51 57 48 45 47 55 62 50 43 38 36 36 33 27 25 19 21 21 14 15 18 24 27 32 24 16 16 16 14 13 8 18 19 7 7 14 19 19 17 17 18 19 21
89 75 31 63 64 42 62 68 58 55 50 55 66 66 70 59 29 32 38 32 30 31 21 24 18 14 12 18 20 31 26 25 23 20 21 19 18 18 12 19 21 21 18 16 18 17 19 20 20
98 92 78 27 70 68 46 20 70 61 61 55 66 74 57 52 34 37 45 39 37 37 34 24 24 17 12 13 18 28 31 24 24 24 24 24 22 24 23 23 22 22 19 15 16 16 16 20 21
106 20 96 79 72 72 69 77 69 67 41 54 29 74 66 56 40 42 42 47 43 39 34 28 28 22 19 12 18 17 20 30 30 29 27 28 26 24 23 24 23 24 22 21 20 17 19 20 13
Wind_Direction
120 108 90 92 83 48 57 68 37 356 353 24 22 31 26 12 10 5 8 3 0 346 15 7 16 6 11 13 29 46 62 57 42 39 19 347 323 320 317 317 302 295 350 353 305 286 264 227 226
121 116 87 94 90 70 71 49 8 6 19 17 28 23 32 11 358 11 8 4 7 31 28 38 28 11 28 42 52 64 61 54 48 60 56 62 61 59 55 57 74 28 328 271 282 11 172 143 188
117 142 111 110 86 72 87 76 50 339 28 19 23 30 27 18 9 4 10 2 51 41 59 50 31 46 59 62 62 58 54 61 73 55 55 73 63 63 60 60 52 39 354 337 60 98 100 109 109
134 149 112 123 100 79 57 63 44 29 26 10 21 29 16 20 5 6 17 11 63 55 66 34 69 50 54 68 70 71 70 76 76 79 50 56 74 72 66 62 66 48 61 91 102 110 94 74 63
152 173 153 133 104 72 59 32 49 31 54 9 14 28 18 13 5 2 13 15 66 61 71 67 64 46 67 48 80 75 84 82 72 66 62 68 68 67 62 64 62 66 79 84 89 103 86 76 71
179 188 92 115 111 83 80 40 36 74 77 47 28 22 32 15 7 359 53 65 69 64 49 68 38 51 77 63 53 72 61 91 53 54 70 84 68 62 50 64 56 59 74 75 74 82 80 79 76
201 169 173 166 112 115 97 200 312 35 11 37 55 32 32 12 2 359 59 47 65 41 59 24 23 32 52 76 45 57 55 58 59 64 89 98 77 59 59 62 65 65 82 74 77 76 77 81 72
167 197 139 146 121 125 104 89 33 81 24 72 30 13 27 6 10 2 73 66 70 57 63 83 39 58 58 61 60 58 91 79 83 80 96 83 79 66 73 80 70 68 77 72 65 68 72 62 70
209 149 173 163 154 81 154 122 117 329 11 41 32 9 18 27 11 356 353 77 69 50 53 54 33 50 65 76 80 66 81 78 77 88 87 85 94 79 88 78 66 83 74 69 74 70 64 68 55
175 207 155 164 200 108 154 307 114 303 306 354 35 49 8 22 356 352 348 357 67 76 53 57 57 62 77 68 63 52 69 53 59 70 76 66 74 68 77 74 72 69 70 66 64 56 66 65 69
204 201 203 160 159 178 170 137 236 278 284 294 28 25 16 8 350 347 344 351 63 55 58 66 57 49 60 58 66 83 56 61 60 60 55 65 65 69 75 70 71 67 71 74 68 61 62 62 62
225 187 186 162 188 235 157 262 272 272 291 175 21 62 64 345 345 347 337 343 45 61 76 73 71 66 48 58 65 68 53 69 60 61 54 68 61 72 69 61 78 93 94 58 65 56 57 68 53
200 217 193 203 174 214 194 209 260 241 282 207 99 359 357 341 348 344 334 340 64 13 65 52 64 41 61 61 67 74 59 64 66 56 73 60 62 68 58 60 63 58 62 74 59 89 60 73 55
187 194 183 198 172 196 200 220 215 251 232 289 315 252 323 346 341 337 331 333 333 347 36 74 275 35 52 63 65 63 71 50 70 46 76 66 55 58 51 54 52 66 64 56 59 60 80 58 94
215 215 219 179 181 188 195 214 191 233 270 129 279 240 249 314 330 328 329 324 321 97 350 96 238 101 359 53 63 51 74 66 44 48 51 61 52 49 55 50 51 50 53 56 61 55 52 52 57
238 234 202 215 187 218 191 216 222 232 258 276 211 257 261 319 323 317 319 307 312 321 144 222 102 89 31 32 32 54 43 19 60 48 64 62 51 43 64 53 52 58 60 60 60 62 59 58 62
209 237 240 198 191 202 204 216 226 241 237 198 260 202 284 308 309 306 312 291 294 301 163 217 108 88 67 63 358 15 53 21 73 71 59 56 57 48 52 54 55 47 50 54 52 52 51 51 50
231 206 210 211 197 216 213 219 216 226 242 259 189 274 268 330 302 294 312 281 283 283 279 216 232 134 45 285 321 339 292 12 74 78 80 73 69 48 54 53 50 60 56 49 49 47 48 47 43
223 235 219 204 232 201 196 222 226 228 216 201 220 283 265 253 275 285 304 262 241 264 268 192 221 218 273 316 271 272 283 290 355 66 53 78 71 68 61 57 45 50 59 59 51 41 38 41 39
234 235 237 209 203 200 208 221 222 224 230 246 264 237 194 238 270 288 280 257 259 257 230 221 216 201 237 246 38 287 235 248 301 345 23 58 81 74 66 60 60 41 36 41 45 49 33 50 43
231 238 232 231 203 202 221 214 219 210 219 214 214 214 236 268 234 298 275 250 251 250 228 215 201 232 245 245 254 50 230 235 249 34 304 76 39 70 42 32 37 31 30 34 37 35 33 32 30
221 218 235 239 208 234 211 222 219 211 216 233 231 249 244 229 228 286 265 247 249 254 211 223 206 213 244 241 240 221 275 240 238 238 285 98 31 44 39 34 20 25 42 57 41 40 34 25 19
223 215 204 227 228 213 218 215 222 215 227 221 231 237 234 216 217 271 250 245 246 256 186 214 200 204 215 238 241 219 214 241 254 257 294 309 39 343 352 93 49 27 42 36 37 18 13 18 10
227 220 205 199 215 217 221 228 233 220 217 230 208 214 230 227 214 252 236 235 242 251 236 201 205 200 210 221 241 223 243 251 228 267 256 300 297 324 339 4 4 33 14 10 9 7 3 5 6
225 224 212 200 201 215 220 220 226 221 222 226 225 219 220 221 244 253 226 226 236 243 253 236 194 188 200 216 228 235 240 252 246 287 291 294 301 329 319 357 3 359 355 357 357 349 353 355 356
228 228 222 209 208 217 214 220 224 219 219 227 237 238 231 223 222 218 224 215 216 229 240 251 203 207 191 196 227 228 225 243 258 276 281 246 263 215 345 327 326 329 334 333 335 337 347 349 346
231 226 224 217 217 215 220 229 226 224 214 212 214 237 230 224 228 224 216 199 205 235 232 235 246 206 198 218 221 222 226 230 247 258 265 276 244 295 303 285 297 322 321 324 326 338 332 338 346
234 228 217 217 219 213 215 227 222 222 222 212 208 221 227 223 224 230 215 202 203 209 228 234 223 236 209 207 217 215 219 235 251 263 268 273 278 284 298 297 305 310 317 325 324 324 335 336 343
235 232 225 222 215 212 223 232 227 220 220 216 206 216 218 222 227 224 210 199 205 214 207 214 217 214 223 238 208 211 222 231 240 249 261 269 275 282 290 298 303 306 311 319 320 328 345 337 335
229 198 232 227 218 217 212 225 237 220 233 224 226 212 214 218 228 220 211 207 202 211 205 206 206 208 216 242 251 204 203 231 238 249 260 269 279 286 291 290 293 290 300 300 306 318 314 325 26